Temperature
7 6 6 6 6 7 7 7 7 7 7 7 6 6 7 7 7 7 7 8 9 10 10 10 10 10 10 10 10 10 10 10 10 10 9 9 9 9 9 9 9 9 9 9
6 6 6 7 7 7 6 6 6 6 7 7 6 6 6 6 6 7 7 7 8 9 10 10 10 10 10 10 10 10 10 10 10 9 9 9 9 9 9 9 9 9 9 9
6 6 7 7 6 6 6 6 6 6 6 6 6 6 6 6 6 7 7 7 8 8 9 9 9 10 10 10 10 10 10 9 9 9 9 9 9 9 8 8 9 8 8 9
5 5 6 6 6 6 6 6 6 6 5 5 6 5 5 5 5 5 6 6 7 8 8 9 9 9 9 9 9 9 9 9 9 9 9 9 9 8 8 8 8 8 8 8
5 5 5 5 6 6 5 6 5 5 5 5 5 5 5 5 5 5 5 6 6 7 8 8 8 9 9 9 9 9 9 9 9 9 8 8 8 8 8 8 8 8 8 8
4 5 5 5 5 5 5 5 5 4 4 5 5 5 4 4 5 5 5 6 6 6 7 8 8 8 8 8 8 8 8 8 8 8 8 8 8 8 8 8 7 7 7 7
4 4 4 5 5 5 5 4 4 4 4 5 5 4 4 4 4 4 4 5 5 6 6 7 7 7 7 8 8 8 8 8 8 8 8 8 7 7 7 7 7 7 7 7
2 3 4 4 4 4 4 4 4 4 4 4 4 3 3 4 4 4 4 4 4 5 6 6 6 6 7 7 7 7 7 7 7 7 7 7 7 7 7 7 7 7 7 7
2 2 3 4 4 4 3 3 3 3 3 3 3 3 3 4 3 3 3 3 3 4 5 5 6 6 6 6 6 6 6 7 6 6 6 6 6 6 6 6 6 6 6 6
1 2 2 3 4 3 3 2 2 2 3 4 3 3 3 3 2 2 1 2 2 3 3 4 5 5 5 5 5 6 6 6 6 6 6 6 6 6 6 6 6 6 6 6
1 1 1 2 2 2 2 2 1 1 2 2 3 3 2 2 1 1 1 1 1 2 2 3 3 4 4 5 5 5 5 5 5 5 5 5 5 5 5 5 5 5 5 5
1 -0 -0 1 1 2 2 1 1 1 1 0 1 2 1 0 0 1 1 1 1 1 2 2 3 3 3 4 4 4 4 4 4 4 5 5 5 5 5 5 5 5 5 5
1 -0 -0 1 1 1 1 1 0 0 0 -0 0 1 1 0 0 0 0 0 1 1 1 1 2 2 2 3 3 4 4 4 4 4 4 4 4 4 4 4 4 5 4 4
1 -1 -1 -0 1 0 -0 0 -0 -0 -1 -1 -0 0 0 -0 -1 -0 -0 -0 0 0 0 0 1 1 2 2 2 3 3 3 3 3 3 4 4 4 4 4 4 4 4 4
-1 -1 -1 -1 -0 -0 -0 -0 -1 -1 -1 -1 -0 -1 -1 -1 -1 -1 -1 -1 -1 -1 -0 -0 0 0 1 1 1 2 2 2 3 3 3 3 3 3 3 3 3 3 3 3
-2 -2 -2 -2 -0 -1 -1 -1 -1 -1 -1 -1 -1 -1 -2 -2 -2 -2 -2 -2 -2 -2 -1 -1 -1 -0 0 0 1 1 1 1 2 2 2 3 3 3 3 3 3 3 3 3
-3 -3 -2 -2 -1 -1 -2 -2 -2 -2 -3 -3 -3 -3 -3 -3 -3 -3 -3 -3 -3 -2 -2 -2 -2 -1 -1 -0 0 0 1 1 1 2 2 2 2 2 2 2 2 2 2 2
-3 -3 -3 -3 -2 -3 -2 -2 -3 -3 -3 -4 -4 -4 -4 -4 -3 -3 -3 -3 -3 -3 -3 -3 -2 -2 -1 -1 -0 -0 0 0 1 1 1 1 1 1 2 2 2 2 2 2
-4 -3 -4 -3 -3 -3 -3 -3 -4 -4 -4 -4 -5 -4 -4 -4 -4 -3 -3 -3 -4 -4 -3 -3 -3 -2 -2 -1 -1 -1 -0 -0 0 0 1 1 1 1 1 1 1 1 1 1
-4 -4 -4 -4 -4 -3 -4 -3 -3 -4 -4 -5 -5 -5 -5 -5 -5 -4 -4 -4 -4 -4 -4 -3 -3 -3 -2 -2 -2 -1 -1 -1 -0 -0 -0 -0 -0 0 0 1 0 0 0 1
-5 -5 -6 -5 -5 -5 -5 -4 -4 -4 -5 -5 -6 -6 -6 -6 -6 -6 -5 -5 -5 -4 -4 -4 -3 -3 -3 -2 -2 -2 -2 -1 -1 -1 -1 -1 -1 -0 -0 -0 -0 -0 -0 -0
-6 -6 -6 -6 -6 -5 -5 -5 -6 -6 -6 -6 -6 -6 -6 -6 -6 -6 -6 -5 -5 -5 -4 -4 -4 -4 -3 -3 -3 -3 -2 -2 -2 -1 -1 -1 -1 -1 -1 -1 -1 -1 -1 -1
-6 -6 -6 -6 -6 -5 -5 -6 -6 -6 -7 -7 -7 -7 -7 -7 -7 -7 -6 -6 -6 -6 -5 -5 -5 -4 -4 -4 -4 -3 -3 -3 -2 -2 -2 -2 -2 -2 -2 -2 -2 -2 -1 -1
-7 -7 -7 -7 -6 -6 -6 -6 -6 -7 -7 -7 -7 -7 -7 -8 -7 -7 -7 -7 -6 -6 -6 -5 -5 -5 -4 -4 -4 -4 -4 -3 -3 -3 -3 -2 -2 -2 -2 -2 -2 -2 -2 -2
-8 -8 -8 -8 -7 -7 -7 -7 -7 -7 -7 -7 -7 -8 -8 -8 -8 -8 -7 -7 -7 -6 -6 -6 -6 -5 -5 -4 -4 -4 -4 -4 -4 -3 -3 -3 -3 -3 -3 -3 -3 -3 -2 -2
-8 -8 -8 -8 -7 -8 -7 -7 -8 -8 -8 -8 -8 -8 -8 -8 -8 -8 -8 -8 -7 -7 -7 -6 -6 -6 -5 -5 -5 -4 -4 -4 -4 -4 -4 -4 -3 -3 -3 -3 -3 -3 -3 -3
Wind_Speed
3 3 2 4 5 4 3 5 7 6 4 3 8 12 11 6 5 6 7 6 6 8 6 4 4 4 4 4 4 4 4 3 4 3 3 3 2 2 2 2 2 2 2 3
4 2 5 3 2 3 3 6 7 6 4 4 7 11 8 6 5 6 6 6 6 5 3 2 3 3 4 5 5 4 4 4 4 4 3 3 3 2 2 1 2 2 2 3
3 3 2 1 2 3 5 6 6 7 5 3 4 8 5 4 3 3 4 4 3 4 4 3 2 3 3 4 5 5 5 5 4 4 3 3 2 1 1 1 1 2 2 3
3 4 3 3 3 3 7 5 5 6 4 4 1 5 6 4 5 5 5 4 3 3 2 2 2 2 3 4 4 4 4 4 4 5 5 5 3 2 2 2 2 1 2 2
4 2 2 4 5 3 5 4 5 5 4 4 2 3 7 3 4 6 6 5 4 3 2 2 2 2 2 2 3 3 3 3 4 5 5 5 3 2 1 1 1 1 1 1
4 3 2 3 4 3 2 3 2 0 2 5 6 5 6 2 3 6 5 5 4 3 2 1 1 0 0 1 2 2 4 3 3 4 4 4 4 3 2 1 2 1 1 1
7 4 3 2 4 4 3 2 3 2 2 6 3 4 5 4 3 3 5 5 5 4 2 2 2 1 1 0 1 2 3 2 2 3 3 4 4 4 4 3 2 2 1 1
5 7 4 3 1 3 3 2 3 4 5 4 1 5 4 3 4 4 4 5 5 5 4 3 2 1 1 1 1 2 2 2 2 2 2 2 3 3 2 2 2 3 3 3
2 6 5 5 3 0 2 2 2 2 3 3 4 3 5 5 8 8 8 8 8 7 6 5 4 3 2 1 1 1 2 1 1 1 2 2 2 2 2 2 2 2 2 2
2 6 6 6 3 3 0 1 2 0 3 4 4 3 3 6 8 10 10 9 9 8 8 7 5 4 3 2 2 0 1 1 1 1 1 1 1 2 2 2 2 2 2 2
1 3 6 5 1 2 2 1 1 2 2 2 3 3 2 3 5 7 8 8 8 9 8 7 6 5 4 3 2 2 1 0 0 0 0 0 1 1 1 2 3 3 3 3
1 1 5 6 4 1 1 1 1 1 4 2 3 4 3 4 5 6 7 7 8 8 8 7 6 6 5 4 3 2 2 1 1 1 1 1 1 1 1 2 3 3 3 3
1 1 4 6 3 4 2 2 1 1 1 2 3 5 3 7 8 7 7 8 8 8 9 8 7 5 4 4 3 3 2 2 1 1 1 1 1 2 2 3 3 3 3 3
1 2 4 6 5 3 5 6 4 1 2 4 6 8 9 11 12 11 10 9 8 7 8 8 7 7 5 4 3 3 3 2 2 1 1 1 2 2 3 2 2 2 3 3
2 2 4 6 7 4 6 7 5 3 5 6 8 7 9 10 10 10 10 9 9 9 9 8 8 8 7 5 4 3 3 3 2 1 1 2 3 2 2 2 2 1 2 2
2 2 3 5 5 4 5 7 6 6 5 6 7 8 8 10 9 9 10 10 10 10 10 10 9 8 8 7 5 4 4 3 2 2 2 2 2 2 2 2 1 1 1 2
2 1 2 5 5 4 4 4 4 3 3 3 5 7 11 11 11 11 10 10 10 10 11 10 9 8 7 7 6 5 4 4 2 2 2 2 2 2 3 2 1 1 1 1
3 2 2 4 4 3 2 2 3 3 3 5 5 8 10 11 11 8 7 8 10 12 12 10 9 8 7 7 6 5 4 3 2 2 3 3 3 3 3 2 2 2 1 2
4 3 1 1 3 4 2 5 5 4 4 6 8 11 12 12 9 6 9 11 10 11 11 9 8 8 7 6 6 5 4 4 3 3 4 4 3 3 3 3 2 2 1 2
3 2 1 1 2 4 3 7 7 2 2 8 10 12 13 12 8 8 13 15 13 12 10 9 9 8 6 6 5 5 5 4 4 5 4 4 4 4 4 3 2 2 2 2
3 2 0 2 4 4 4 9 6 2 5 10 11 11 11 8 7 11 15 14 12 11 11 10 9 8 7 6 5 5 5 5 6 5 4 4 4 3 3 2 2 1 1 1
1 1 1 1 2 4 6 5 3 4 7 9 10 10 11 11 12 13 13 13 12 12 11 10 9 9 8 6 5 6 6 6 5 4 4 4 3 3 2 1 1 1 1 1
2 3 2 3 4 3 2 2 3 5 7 8 9 11 11 12 13 14 13 12 11 11 11 10 9 9 8 6 5 6 7 6 5 4 4 4 3 3 1 1 1 1 1 1
3 2 1 3 4 4 4 3 4 6 8 9 10 10 11 12 13 13 13 12 11 11 10 9 9 9 9 7 6 6 6 5 4 4 4 3 3 3 2 1 1 1 1 1
3 2 2 4 5 6 3 4 7 9 10 11 11 10 11 11 13 12 12 12 11 11 10 8 8 9 9 8 7 7 6 5 4 4 4 3 3 2 2 2 1 1 1 2
1 2 2 5 4 5 8 8 8 9 11 11 11 12 11 10 12 12 12 11 10 10 9 9 9 9 9 8 8 7 6 4 3 4 4 3 2 2 1 1 2 3 1 1
Wind_Direction
22 69 227 236 228 250 243 248 266 270 278 260 251 266 276 278 266 264 264 260 253 250 255 231 208 199 190 187 182 182 177 175 156 150 157 161 179 178 170 172 170 166 167 163
29 271 256 249 261 288 268 265 271 287 284 262 274 275 275 263 254 253 258 258 254 257 269 236 203 186 188 190 190 188 189 180 173 171 170 168 168 177 176 171 164 174 179 177
222 267 302 270 291 285 269 244 259 272 312 299 306 296 283 287 277 297 292 276 268 243 239 236 207 200 197 199 197 193 194 184 176 159 143 122 108 100 132 173 195 205 209 196
275 293 318 305 273 239 270 255 257 272 283 271 238 285 286 288 307 314 312 311 297 288 264 239 207 202 205 209 198 186 180 175 168 155 156 158 165 182 203 198 205 230 215 210
291 320 322 278 274 245 252 281 265 259 235 262 238 239 286 319 309 307 306 306 306 298 265 241 228 216 210 194 182 173 159 162 165 162 165 167 169 180 166 155 188 214 229 217
289 300 277 271 298 259 273 330 315 359 161 250 221 203 279 284 283 315 319 319 321 324 318 313 334 25 46 135 144 151 156 164 163 165 167 171 173 169 156 165 189 209 221 222
330 320 325 350 349 353 21 41 349 321 251 247 192 199 254 287 309 308 321 321 325 337 342 352 8 360 9 64 142 152 158 165 164 164 172 179 179 175 184 198 199 209 225 232
334 309 323 347 328 288 290 178 194 246 246 276 211 220 256 325 349 354 353 351 2 1 0 0 355 351 336 335 170 160 161 170 172 172 182 180 176 180 195 203 202 211 223 221
302 286 321 332 320 209 331 272 230 213 268 263 257 278 304 354 9 10 8 10 5 0 4 3 3 5 350 328 283 183 160 150 161 185 180 171 178 193 203 204 206 218 230 231
214 280 303 320 344 3 325 234 51 205 260 257 271 264 282 335 351 357 360 360 354 356 360 2 1 359 357 344 328 314 162 181 176 158 181 194 202 222 217 197 206 218 224 220
209 256 305 331 308 283 6 11 299 252 238 239 272 278 335 344 352 347 344 348 346 346 347 346 349 348 352 4 5 355 347 359 356 250 231 218 244 244 229 222 224 223 219 214
313 178 279 274 271 284 180 245 171 232 276 246 243 275 7 15 357 349 341 343 343 342 344 344 345 352 357 356 352 351 344 339 310 276 247 241 259 259 244 243 241 232 223 218
341 74 324 332 344 13 356 345 329 269 245 236 238 267 358 1 352 347 341 337 336 342 345 348 349 350 347 340 334 334 331 324 325 334 308 284 271 260 260 258 250 235 226 223
2 198 207 242 273 310 304 321 342 341 254 262 250 276 318 339 337 335 334 333 333 338 341 342 344 342 336 331 329 326 330 331 328 327 296 286 276 265 264 267 257 243 231 223
47 257 249 263 282 287 294 305 309 271 259 259 281 289 310 322 324 321 327 334 340 341 342 339 337 336 337 335 334 330 325 327 320 310 289 277 282 277 270 277 279 269 248 238
6 271 286 282 274 278 296 314 304 289 290 283 293 293 311 323 331 335 339 344 341 339 337 336 335 336 336 333 327 325 319 318 313 288 283 286 286 282 263 258 271 274 263 246
295 267 282 279 306 315 301 329 321 319 326 309 296 307 329 336 337 335 336 338 335 333 333 330 326 326 326 326 322 315 311 316 324 306 298 290 283 280 274 264 252 245 243 234
219 232 244 287 335 268 262 1 344 324 348 355 334 331 334 326 318 316 332 338 334 331 329 327 327 326 325 326 325 320 318 314 315 313 302 296 283 279 280 268 256 254 238 226
197 197 228 269 278 276 315 346 341 313 313 360 343 334 335 333 325 320 348 343 328 323 322 322 322 324 324 326 326 327 322 318 315 308 301 295 287 279 270 261 251 253 239 243
61 103 153 228 260 273 300 324 322 284 301 358 350 339 340 346 344 323 337 336 328 328 330 329 331 334 331 327 331 330 321 316 306 301 298 296 288 275 263 255 251 256 241 242
358 12 215 238 248 270 322 326 347 40 315 332 334 331 331 327 301 302 317 322 326 329 331 334 335 336 331 331 335 331 320 307 304 306 304 302 292 277 262 260 257 238 231 223
259 283 267 238 251 272 342 7 28 304 311 321 325 326 322 316 312 314 318 322 327 329 331 334 335 333 333 337 337 328 318 314 317 317 312 308 303 292 277 254 272 243 196 188
221 215 230 218 237 276 325 314 307 319 319 321 323 321 321 317 316 319 322 323 324 325 327 330 330 330 332 334 336 326 323 329 332 332 326 324 320 317 306 252 246 258 218 197
296 325 263 276 275 298 309 313 324 322 314 313 313 313 316 313 314 317 320 322 323 325 324 326 329 329 330 331 331 325 326 332 338 333 330 328 328 329 333 303 241 216 213 208
271 307 294 274 292 313 303 317 319 319 319 320 320 318 316 316 315 315 317 318 319 319 321 324 324 324 326 327 326 329 330 334 339 332 328 331 333 330 338 339 312 252 231 214
235 213 233 258 275 284 290 303 316 317 318 320 320 321 322 318 314 315 314 314 315 317 319 322 323 324 326 327 325 331 334 333 335 333 333 333 331 331 342 359 4 14 18 35
Height
1488 1493 1495 1493 1492 1492 1493 1493 1492 1488 1484 1485 1483 1479 1474 1472 1472 1470 1469 1468 1468 1468 1470 1471 1473 1475 1476 1478 1480 1481 1482 1483 1485 1487 1488 1490 1492 1494 1496 1497 1499 1501 1502 1503
1493 1494 1491 1491 1491 1492 1492 1492 1491 1487 1484 1484 1482 1477 1471 1469 1468 1467 1466 1465 1465 1465 1466 1468 1469 1471 1473 1475 1476 1478 1479 1481 1482 1484 1486 1488 1489 1491 1493 1495 1496 1498 1499 1501
1494 1493 1490 1490 1491 1492 1490 1491 1490 1489 1485 1483 1484 1477 1471 1466 1465 1464 1463 1462 1462 1463 1463 1465 1466 1468 1469 1471 1473 1475 1477 1478 1480 1482 1483 1485 1487 1489 1490 1492 1493 1495 1496 1497
1495 1492 1491 1491 1490 1491 1490 1487 1487 1486 1488 1488 1485 1485 1472 1468 1465 1462 1461 1460 1460 1460 1461 1462 1463 1465 1466 1468 1471 1472 1474 1476 1477 1479 1481 1482 1483 1485 1487 1489 1490 1492 1493 1494
1496 1493 1492 1491 1489 1489 1487 1485 1485 1485 1487 1488 1486 1487 1476 1469 1466 1463 1461 1459 1459 1459 1459 1460 1461 1462 1464 1466 1468 1470 1471 1473 1475 1476 1478 1480 1481 1482 1484 1486 1487 1489 1490 1491
1496 1493 1493 1491 1488 1487 1486 1486 1485 1487 1488 1486 1481 1485 1478 1473 1468 1464 1461 1459 1458 1458 1458 1458 1459 1461 1462 1464 1465 1467 1469 1471 1472 1474 1475 1477 1478 1480 1481 1482 1484 1485 1486 1488
1499 1494 1492 1491 1490 1488 1488 1491 1492 1489 1489 1483 1479 1482 1478 1469 1466 1464 1462 1460 1459 1458 1457 1457 1458 1459 1460 1461 1463 1465 1466 1468 1469 1471 1473 1474 1476 1477 1478 1479 1480 1482 1483 1484
1508 1503 1495 1493 1493 1493 1491 1491 1495 1493 1488 1484 1481 1482 1476 1469 1466 1464 1462 1461 1459 1457 1457 1457 1457 1458 1458 1459 1461 1462 1464 1466 1467 1469 1470 1472 1473 1474 1475 1476 1477 1478 1479 1481
1513 1505 1496 1494 1493 1493 1492 1492 1491 1494 1491 1490 1483 1481 1474 1467 1465 1464 1462 1460 1459 1458 1457 1457 1457 1457 1457 1457 1459 1460 1461 1463 1464 1466 1467 1469 1470 1471 1472 1473 1474 1475 1476 1478
1511 1510 1501 1497 1494 1493 1494 1494 1497 1495 1490 1485 1482 1482 1480 1472 1470 1468 1466 1464 1461 1459 1457 1457 1456 1456 1456 1457 1457 1458 1459 1460 1462 1463 1464 1466 1467 1468 1469 1470 1471 1472 1473 1475
1510 1512 1506 1500 1498 1498 1497 1497 1497 1498 1495 1491 1488 1485 1478 1477 1474 1472 1469 1467 1464 1461 1459 1457 1456 1455 1455 1455 1456 1456 1457 1458 1459 1461 1462 1463 1464 1465 1465 1466 1467 1468 1470 1471
1511 1514 1512 1504 1498 1496 1497 1498 1499 1501 1498 1497 1495 1489 1479 1478 1475 1473 1470 1468 1465 1462 1460 1457 1456 1455 1454 1453 1454 1454 1455 1456 1457 1458 1459 1460 1461 1461 1462 1463 1464 1465 1466 1467
1511 1514 1514 1506 1503 1501 1500 1499 1498 1498 1498 1498 1496 1489 1480 1478 1475 1473 1471 1468 1465 1462 1459 1457 1455 1453 1452 1452 1452 1452 1453 1454 1455 1456 1456 1457 1458 1458 1459 1459 1460 1461 1462 1463
1509 1513 1515 1512 1505 1503 1502 1500 1499 1499 1500 1497 1494 1487 1482 1480 1477 1474 1471 1468 1465 1462 1460 1457 1454 1452 1452 1452 1451 1451 1451 1451 1452 1453 1454 1454 1455 1455 1455 1456 1456 1457 1458 1459
1511 1513 1510 1507 1504 1503 1502 1500 1499 1499 1497 1496 1490 1487 1485 1483 1480 1476 1472 1468 1465 1462 1459 1456 1454 1452 1450 1450 1449 1449 1449 1449 1449 1450 1451 1451 1452 1452 1452 1452 1453 1453 1454 1455
1512 1513 1510 1508 1502 1501 1500 1499 1498 1497 1496 1494 1491 1488 1486 1483 1480 1476 1472 1468 1465 1462 1459 1456 1454 1451 1449 1448 1447 1447 1447 1447 1447 1447 1448 1448 1448 1448 1448 1449 1449 1450 1450 1451
1514 1514 1512 1507 1503 1500 1502 1502 1500 1499 1497 1495 1494 1492 1486 1482 1478 1476 1473 1469 1466 1463 1459 1456 1453 1451 1449 1447 1446 1445 1445 1444 1444 1444 1444 1445 1444 1444 1445 1445 1445 1446 1447 1447
1514 1513 1512 1510 1507 1511 1506 1501 1500 1499 1498 1497 1495 1492 1488 1484 1479 1475 1472 1469 1465 1462 1459 1455 1452 1450 1448 1446 1445 1444 1443 1442 1442 1441 1441 1441 1441 1441 1441 1442 1442 1442 1443 1443
1510 1512 1514 1513 1512 1506 1504 1502 1501 1500 1498 1497 1495 1491 1487 1482 1476 1472 1470 1468 1465 1461 1458 1454 1451 1449 1446 1444 1443 1441 1440 1440 1439 1438 1438 1438 1438 1438 1438 1438 1438 1439 1439 1439
1510 1511 1515 1516 1514 1508 1508 1503 1499 1500 1499 1498 1495 1492 1488 1483 1480 1475 1470 1467 1463 1459 1456 1453 1450 1447 1444 1442 1441 1439 1438 1437 1436 1436 1435 1435 1435 1435 1435 1435 1435 1435 1435 1436
1515 1517 1519 1518 1516 1510 1509 1504 1500 1505 1504 1500 1497 1493 1490 1486 1484 1478 1471 1467 1463 1458 1455 1451 1448 1445 1443 1441 1439 1437 1436 1434 1434 1433 1433 1432 1432 1432 1431 1431 1431 1431 1432 1432
1520 1520 1520 1519 1518 1515 1508 1505 1508 1508 1504 1500 1496 1493 1489 1484 1479 1474 1469 1465 1460 1456 1452 1449 1446 1444 1441 1439 1437 1435 1433 1432 1431 1430 1430 1429 1429 1429 1428 1428 1428 1428 1429 1429
1520 1520 1518 1518 1516 1511 1508 1508 1507 1505 1502 1498 1495 1491 1487 1481 1476 1471 1467 1462 1458 1455 1451 1448 1445 1442 1440 1437 1435 1433 1432 1430 1428 1427 1426 1426 1426 1426 1425 1425 1425 1425 1426 1426
1518 1516 1516 1515 1511 1509 1508 1506 1505 1503 1500 1496 1493 1489 1484 1479 1474 1469 1464 1460 1456 1452 1449 1446 1443 1440 1437 1436 1434 1432 1430 1428 1426 1425 1424 1424 1423 1423 1423 1423 1423 1423 1424 1424
1518 1516 1516 1514 1511 1508 1506 1505 1503 1500 1496 1493 1489 1485 1481 1477 1471 1467 1462 1458 1454 1450 1447 1444 1441 1438 1436 1434 1432 1431 1429 1427 1425 1423 1422 1421 1421 1421 1421 1421 1421 1422 1422 1423
1516 1516 1517 1514 1510 1509 1505 1502 1500 1497 1493 1489 1485 1481 1477 1474 1469 1464 1460 1456 1452 1448 1445 1442 1439 1436 1434 1432 1430 1429 1427 1425 1423 1421 1420 1420 1420 1420 1420 1420 1420 1420 1421 1421